IGO1153 VIDP-VNKT

Flight info

Callsign IGO1153
Flight time 1h 6m
Altitude 35000
Route ALI6E ALI G452 LKN G598 SMR SMR
Aircraft A320/M-SDE3FGHIRWY/LB1

Departure

Time 2025-12-31 06:01
Airport Indira Gandhi International Airport (VIDP)

Arrival

Time 2025-12-31 07:07
Airport Tribhuvan International Airport (VNKT)
Time Latitude Longitude Altitude Speed Heading
2025-12-31 05:37 28.56560 77.10903 750 ft 0 kts 283°
2025-12-31 05:38 28.56550 77.10951 746 ft 2 kts 265°
2025-12-31 05:39 28.56555 77.10966 750 ft 0 kts 193°
2025-12-31 05:39 28.56476 77.10943 747 ft 14 kts 195°
2025-12-31 05:40 28.56323 77.10950 747 ft 10 kts 110°
2025-12-31 05:40 28.56311 77.11005 750 ft 0 kts 103°
2025-12-31 05:43 28.56309 77.11012 750 ft 3 kts 106°
2025-12-31 05:44 28.56283 77.11114 749 ft 0 kts 106°
2025-12-31 05:44 28.56279 77.11129 747 ft 3 kts 106°
2025-12-31 05:45 28.56266 77.11181 748 ft 3 kts 105°
2025-12-31 05:45 28.56258 77.11216 750 ft 0 kts 104°
2025-12-31 05:45 28.56257 77.11226 750 ft 1 kts 87°
2025-12-31 05:46 28.56452 77.11312 747 ft 14 kts 11°
2025-12-31 05:47 28.56535 77.11331 754 ft 19 kts 12°
2025-12-31 05:47 28.56737 77.11380 755 ft 14 kts 12°
2025-12-31 05:48 28.56772 77.11389 755 ft 0 kts 12°
2025-12-31 05:48 28.56848 77.11337 749 ft 17 kts 272°
2025-12-31 05:48 28.56852 77.11193 751 ft 16 kts 271°
2025-12-31 05:49 28.56856 77.10930 750 ft 14 kts 272°
2025-12-31 05:49 28.56861 77.10681 750 ft 15 kts 270°
2025-12-31 05:50 28.56868 77.10346 749 ft 0 kts 271°
2025-12-31 05:51 28.56870 77.10294 750 ft 10 kts 271°
2025-12-31 05:51 28.56874 77.10109 749 ft 14 kts 271°
2025-12-31 05:52 28.56878 77.09941 750 ft 11 kts 271°
2025-12-31 05:52 28.56880 77.09848 750 ft 13 kts 271°
2025-12-31 05:52 28.56885 77.09619 747 ft 16 kts 271°
2025-12-31 05:53 28.56891 77.09378 750 ft 14 kts 271°
2025-12-31 05:53 28.56896 77.09142 750 ft 14 kts 271°
2025-12-31 05:54 28.56905 77.08768 750 ft 12 kts 278°
2025-12-31 05:55 28.56961 77.08749 748 ft 3 kts 31°
2025-12-31 05:55 28.57008 77.08792 745 ft 8 kts 43°
2025-12-31 05:55 28.57054 77.08866 749 ft 0 kts 84°
2025-12-31 05:59 28.57055 77.08983 749 ft 44 kts 92°
2025-12-31 05:59 28.57039 77.09552 751 ft 99 kts 91°
2025-12-31 05:59 28.56966 77.11850 1191 ft 168 kts 95°
2025-12-31 06:00 28.56717 77.14749 2276 ft 204 kts 96°
2025-12-31 06:00 28.56670 77.18372 3047 ft 253 kts 91°
2025-12-31 06:01 28.56661 77.22564 4580 ft 273 kts 90°
2025-12-31 06:01 28.55687 77.26730 6268 ft 282 kts 129°
2025-12-31 06:02 28.51738 77.31750 8941 ft 285 kts 134°
2025-12-31 06:03 28.49512 77.34548 10312 ft 291 kts 134°
2025-12-31 06:03 28.48100 77.36327 10569 ft 314 kts 134°
2025-12-31 06:03 28.44517 77.40842 11915 ft 329 kts 134°
2025-12-31 06:04 28.42091 77.43919 14229 ft 294 kts 135°
2025-12-31 06:04 28.39504 77.47194 16270 ft 272 kts 136°
2025-12-31 06:05 28.36961 77.50386 17522 ft 278 kts 137°
2025-12-31 06:05 28.34315 77.53713 18680 ft 286 kts 137°
2025-12-31 06:06 28.30232 77.58819 20229 ft 297 kts 139°
2025-12-31 06:06 28.28859 77.60540 20713 ft 301 kts 139°
2025-12-31 06:07 28.25990 77.64138 21697 ft 309 kts 140°
2025-12-31 06:07 28.23089 77.67781 22644 ft 317 kts 140°
2025-12-31 06:08 28.20091 77.71543 23567 ft 325 kts 141°
2025-12-31 06:08 28.16943 77.75462 23912 ft 350 kts 141°
2025-12-31 06:09 28.13542 77.79691 24134 ft 376 kts 140°
2025-12-31 06:09 28.09904 77.84237 24371 ft 402 kts 140°
2025-12-31 06:10 28.06035 77.89078 24599 ft 426 kts 140°
2025-12-31 06:10 28.01946 77.94175 24831 ft 448 kts 140°
2025-12-31 06:12 27.84450 78.16022 27143 ft 492 kts 136°
2025-12-31 06:15 27.70892 78.49866 29424 ft 547 kts 120°
2025-12-31 06:17 27.58695 78.82100 31509 ft 563 kts 119°
2025-12-31 06:19 27.46333 79.14486 34131 ft 564 kts 119°
2025-12-31 06:21 27.33882 79.46803 35046 ft 563 kts 119°
2025-12-31 06:23 27.21032 79.78843 35044 ft 562 kts 120°
2025-12-31 06:24 27.09775 80.06722 35049 ft 561 kts 120°
2025-12-31 06:27 26.95466 80.41882 35055 ft 514 kts 120°
2025-12-31 06:28 26.85080 80.67120 35071 ft 509 kts 120°
2025-12-31 06:31 26.77173 81.01134 35091 ft 515 kts 80°
2025-12-31 06:32 26.80223 81.28989 35074 ft 517 kts 80°
2025-12-31 06:35 26.84088 81.64946 35076 ft 517 kts 80°
2025-12-31 06:36 26.87037 81.92912 35067 ft 517 kts 80°
2025-12-31 06:39 26.90788 82.29418 35055 ft 533 kts 81°
2025-12-31 06:40 26.93652 82.57844 35065 ft 523 kts 80°
2025-12-31 06:42 26.96827 82.90229 35077 ft 524 kts 81°
2025-12-31 06:44 27.00105 83.22716 35084 ft 524 kts 80°
2025-12-31 06:46 27.03360 83.55224 35088 ft 525 kts 80°
2025-12-31 06:49 27.06948 83.91854 35087 ft 525 kts 80°
2025-12-31 06:51 27.10127 84.25085 30136 ft 569 kts 81°
2025-12-31 06:53 27.12993 84.56145 25038 ft 490 kts 82°
2025-12-31 06:53 27.13348 84.59936 24144 ft 483 kts 83°
2025-12-31 06:53 27.14014 84.67223 22529 ft 457 kts 83°
2025-12-31 06:54 27.14838 84.77556 20005 ft 429 kts 84°
2025-12-31 06:55 27.15316 84.84042 19000 ft 404 kts 84°
2025-12-31 06:55 27.15784 84.90169 18158 ft 387 kts 84°
2025-12-31 06:56 27.16391 84.96092 16913 ft 377 kts 74°
2025-12-31 06:56 27.18564 85.01303 15712 ft 367 kts 50°
2025-12-31 06:56 27.20135 85.03566 15142 ft 368 kts 48°
2025-12-31 06:57 27.23300 85.08106 14010 ft 370 kts 48°
2025-12-31 06:57 27.26449 85.12654 12798 ft 371 kts 48°
2025-12-31 06:58 27.31771 85.18692 11018 ft 351 kts 23°
2025-12-31 06:59 27.35650 85.20511 10373 ft 329 kts 17°
2025-12-31 06:59 27.39761 85.22371 9887 ft 304 kts 17°
2025-12-31 07:00 27.43578 85.24119 9370 ft 293 kts 18°
2025-12-31 07:00 27.45485 85.24677 9105 ft 274 kts
2025-12-31 07:00 27.49067 85.24270 8441 ft 248 kts 343°
2025-12-31 07:01 27.52427 85.23653 7982 ft 242 kts
2025-12-31 07:01 27.55404 85.24673 7991 ft 204 kts 30°
2025-12-31 07:02 27.57368 85.26415 7832 ft 164 kts 38°
2025-12-31 07:02 27.59044 85.28285 6721 ft 179 kts 54°
2025-12-31 07:03 27.61144 85.31394 5815 ft 155 kts 43°
2025-12-31 07:04 27.62836 85.32752 5409 ft 148 kts 28°
2025-12-31 07:04 27.63778 85.33242 5197 ft 148 kts 22°
2025-12-31 07:04 27.65685 85.34106 4846 ft 148 kts 23°
2025-12-31 07:05 27.67589 85.34969 4526 ft 147 kts 23°
2025-12-31 07:05 27.69432 85.35811 4396 ft 125 kts 21°
2025-12-31 07:06 27.70194 85.36061 4398 ft 7 kts 240°
2025-12-31 07:07 27.70122 85.36007 4397 ft 6 kts 201°
2025-12-31 07:07 27.70097 85.35917 4397 ft 7 kts 286°
2025-12-31 07:07 27.70105 85.35899 4397 ft 0 kts 294°